{"data":{"norad_id":58158,"epoch":"2026-09-20T15:23:31.808832Z","epoch_age_seconds":128201,"freshness":"FRESH","line1":"1 58158U 23166J   26263.64134038  .00003646  00000+0  12924-3 0  9992","line2":"2 58158  53.1542  32.9163 0001297  79.6602 280.4545 15.31687396163043","mean_motion":15.31687396,"eccentricity":0.0001297,"inclination_deg":53.1542,"raan_deg":32.9163,"arg_perigee_deg":79.6602,"mean_anomaly_deg":280.4545,"bstar":0.00012924,"rev_number":16304,"period_min":94.013961579925,"perigee_km":469.88926313205,"apogee_km":471.66587157082,"semimajor_km":6848.9145673514,"source":"CELESTRAK","updated_at":"2026-09-21T09:00:33.797190Z"}}